TimeMST,TemperatureF,Dew PointF,Humidity,Sea Level PressureIn,VisibilityMPH,Wind Direction,Wind SpeedMPH,Gust SpeedMPH,PrecipitationIn,Events,Conditions,WindDirDegrees,DateUTC
12:15 AM,30.2,26.6,86,30.00,10.0,Calm,Calm,-,N/A,,Mostly Cloudy,0,2012-11-07 07:15:00
12:35 AM,32.0,26.6,80,29.99,10.0,Calm,Calm,-,N/A,,Overcast,0,2012-11-07 07:35:00
1:15 AM,33.8,26.6,75,29.96,10.0,Calm,Calm,-,N/A,,Scattered Clouds,0,2012-11-07 08:15:00
1:55 AM,32.0,24.8,75,29.95,10.0,Calm,Calm,-,N/A,,Clear,0,2012-11-07 08:55:00
2:15 AM,32.0,24.8,75,29.94,10.0,Calm,Calm,-,N/A,,Clear,0,2012-11-07 09:15:00
2:35 AM,30.2,24.8,80,29.93,10.0,Calm,Calm,-,N/A,,Clear,0,2012-11-07 09:35:00
2:55 AM,33.8,26.6,75,29.91,10.0,Calm,Calm,-,N/A,,Clear,0,2012-11-07 09:55:00
3:15 AM,30.2,24.8,80,29.90,10.0,East,4.6,-,N/A,,Clear,80,2012-11-07 10:15:00
3:35 AM,33.8,24.8,70,29.90,10.0,Calm,Calm,-,N/A,,Clear,0,2012-11-07 10:35:00
3:55 AM,35.6,26.6,70,29.89,10.0,Calm,Calm,-,N/A,,Clear,0,2012-11-07 10:55:00
4:15 AM,33.8,24.8,70,29.88,10.0,South,3.5,-,N/A,,Clear,180,2012-11-07 11:15:00
4:35 AM,35.6,26.6,70,29.86,10.0,South,11.5,-,N/A,,Clear,170,2012-11-07 11:35:00
4:55 AM,37.4,26.6,65,29.85,10.0,South,12.7,-,N/A,,Clear,170,2012-11-07 11:55:00
5:15 AM,37.4,26.6,65,29.85,10.0,South,10.4,-,N/A,,Clear,170,2012-11-07 12:15:00
5:35 AM,35.6,26.6,70,29.84,10.0,South,10.4,-,N/A,,Clear,180,2012-11-07 12:35:00
5:55 AM,35.6,26.6,70,29.83,10.0,South,6.9,-,N/A,,Clear,180,2012-11-07 12:55:00
6:15 AM,33.8,26.6,75,29.81,10.0,Calm,Calm,-,N/A,,Clear,0,2012-11-07 13:15:00
6:35 AM,35.6,26.6,70,29.81,10.0,South,4.6,-,N/A,,Clear,170,2012-11-07 13:35:00
7:15 AM,33.8,26.6,75,29.79,10.0,South,8.1,-,N/A,,Clear,180,2012-11-07 14:15:00
7:35 AM,33.8,28.4,81,29.78,10.0,South,6.9,-,N/A,,Partly Cloudy,190,2012-11-07 14:35:00
7:55 AM,37.4,28.4,70,29.78,10.0,SSW,6.9,-,N/A,,Clear,200,2012-11-07 14:55:00
8:15 AM,37.4,28.4,70,29.77,10.0,South,5.8,-,N/A,,Clear,190,2012-11-07 15:15:00
8:35 AM,39.2,30.2,70,29.76,10.0,SE,3.5,-,N/A,,Clear,140,2012-11-07 15:35:00
8:55 AM,42.8,30.2,61,29.77,10.0,South,4.6,-,N/A,,Clear,190,2012-11-07 15:55:00
9:15 AM,44.6,30.2,57,29.76,10.0,South,13.8,-,N/A,,Clear,190,2012-11-07 16:15:00
9:35 AM,44.6,32.0,61,29.75,10.0,South,13.8,-,N/A,,Clear,190,2012-11-07 16:35:00
9:55 AM,44.6,32.0,61,29.74,10.0,South,15.0,-,N/A,,Clear,190,2012-11-07 16:55:00
10:15 AM,46.4,33.8,62,29.73,10.0,South,13.8,18.4,N/A,,Clear,180,2012-11-07 17:15:00
10:35 AM,48.2,33.8,58,29.72,10.0,SSW,15.0,-,N/A,,Clear,200,2012-11-07 17:35:00
10:55 AM,48.2,33.8,58,29.72,10.0,South,13.8,-,N/A,,Clear,190,2012-11-07 17:55:00
11:15 AM,51.8,35.6,54,29.71,10.0,South,11.5,-,N/A,,Clear,190,2012-11-07 18:15:00
11:35 AM,53.6,35.6,51,29.70,10.0,South,11.5,-,N/A,,Clear,190,2012-11-07 18:35:00
11:56 AM,53.6,37.4,54,29.69,10.0,South,9.2,-,N/A,,Clear,180,2012-11-07 18:56:00
12:15 PM,53.6,37.4,54,29.68,10.0,South,12.7,-,N/A,,Clear,190,2012-11-07 19:15:00
12:35 PM,55.4,37.4,51,29.67,10.0,SSW,11.5,-,N/A,,Clear,200,2012-11-07 19:35:00
1:35 PM,55.4,37.4,51,29.67,10.0,South,8.1,-,N/A,,Clear,190,2012-11-07 20:35:00
1:55 PM,55.4,37.4,51,29.67,10.0,South,5.8,-,N/A,,Clear,190,2012-11-07 20:55:00
2:15 PM,55.4,39.2,54,29.67,10.0,South,6.9,-,N/A,,Clear,190,2012-11-07 21:15:00
2:35 PM,55.4,39.2,54,29.66,10.0,South,5.8,-,N/A,,Clear,180,2012-11-07 21:35:00
2:55 PM,55.4,39.2,54,29.66,10.0,SSW,3.5,-,N/A,,Clear,200,2012-11-07 21:55:00
3:15 PM,55.4,39.2,54,29.66,10.0,Calm,Calm,-,N/A,,Clear,0,2012-11-07 22:15:00
3:35 PM,53.6,39.2,58,29.66,10.0,Calm,Calm,-,N/A,,Clear,0,2012-11-07 22:35:00
3:55 PM,53.6,39.2,58,29.66,10.0,South,4.6,-,N/A,,Clear,190,2012-11-07 22:55:00
4:15 PM,51.8,39.2,62,29.66,10.0,SW,3.5,-,N/A,,Clear,230,2012-11-07 23:15:00
4:35 PM,51.8,39.2,62,29.67,10.0,NW,6.9,-,N/A,,Clear,320,2012-11-07 23:35:00
4:55 PM,51.8,39.2,62,29.68,10.0,NW,10.4,-,N/A,,Clear,320,2012-11-07 23:55:00
5:15 PM,51.8,39.2,62,29.69,10.0,WNW,10.4,-,N/A,,Clear,300,2012-11-08 00:15:00
5:35 PM,51.8,37.4,58,29.71,10.0,NW,10.4,-,N/A,,Clear,310,2012-11-08 00:35:00
5:55 PM,51.8,37.4,58,29.72,10.0,NW,9.2,-,N/A,,Clear,310,2012-11-08 00:55:00
6:15 PM,51.8,37.4,58,29.73,10.0,NW,12.7,-,N/A,,Clear,310,2012-11-08 01:15:00
6:35 PM,51.8,37.4,58,29.74,10.0,NW,16.1,-,N/A,,Clear,310,2012-11-08 01:35:00
7:15 PM,51.8,37.4,58,29.74,10.0,NW,17.3,-,N/A,,Partly Cloudy,310,2012-11-08 02:15:00
7:35 PM,53.6,37.4,54,29.75,10.0,NW,17.3,-,N/A,,Partly Cloudy,310,2012-11-08 02:35:00
7:55 PM,53.6,37.4,54,29.76,10.0,WNW,17.3,-,N/A,,Scattered Clouds,290,2012-11-08 02:55:00
8:15 PM,51.8,37.4,58,29.77,10.0,WNW,15.0,21.9,N/A,,Mostly Cloudy,290,2012-11-08 03:15:00
8:35 PM,51.8,37.4,58,29.77,10.0,WNW,12.7,-,N/A,,Overcast,300,2012-11-08 03:35:00
8:55 PM,51.8,37.4,58,29.77,10.0,WNW,6.9,-,N/A,,Overcast,290,2012-11-08 03:55:00
9:15 PM,51.8,37.4,58,29.78,10.0,West,5.8,-,N/A,,Overcast,280,2012-11-08 04:15:00
9:35 PM,51.8,37.4,58,29.81,10.0,West,10.4,-,N/A,,Overcast,270,2012-11-08 04:35:00
9:55 PM,51.8,35.6,54,29.85,10.0,WNW,15.0,23.0,N/A,,Overcast,290,2012-11-08 04:55:00
10:15 PM,48.2,37.4,66,29.85,10.0,WNW,11.5,-,N/A,,Overcast,290,2012-11-08 05:15:00
10:35 PM,48.2,37.4,66,29.85,10.0,NNW,4.6,-,N/A,,Overcast,330,2012-11-08 05:35:00
10:55 PM,46.4,37.4,71,29.86,10.0,NNW,6.9,-,N/A,,Overcast,340,2012-11-08 05:55:00
11:15 PM,46.4,37.4,71,29.87,10.0,NNW,12.7,-,N/A,,Overcast,330,2012-11-08 06:15:00
11:35 PM,46.4,35.6,66,29.89,10.0,NW,13.8,-,N/A,,Overcast,310,2012-11-08 06:35:00
11:55 PM,44.6,33.8,66,29.91,10.0,NW,12.7,-,N/A,,Overcast,310,2012-11-08 06:55:00